STARLINK-33736, 63450

Orbit data source: Space-Track

STARLINK-33736, 63450 is a payload satellite owned by SpaceX/Seattle (US) in LEO that was launched on Fri, 04 Apr 2025 UTC via an FALCON 9 launch vehicle from the Air Force Western Test Range (AFWTR). Payload-class satellites include a variety of spacecraft equipped with specific instruments for various scientific and technological missions. These include communications satellites like Starlink; space stations such as the ISS; scientific satellites like the Hubble; Earth observation satellites from companies like Planet Labs, Umbra, and HawkEye 360; GPS; miniature CubeSats for education and research; and military/defense satellites.

Loading next visibility...
Identifier
63450, 2025-069T
Orbit
LEO
Country
Flag of USUS
Related business
Manufacturer
SpaceX/Seattle
Mission
Operational Commercial Communications
Bus & Motor
STARLINK V2MO, Unknown motor
Mass
575 kg wet, ~530 kg dry
Launch date (UTC)
2025-04-04 (8 months ago)
Launch vehicle
FALCON 9
Launch site
Air Force Western Test Range (AFWTR)
Object type
Payload
Rocket body
Debris
Shape & HBR
Box + 2 Pan, 17.7 m
Radar Cross Section
36.964 m², Large (>1 m²)

Expand to show TLE details & history
Last TLE update: 2 days ago

TLE from 2 days ago
0 STARLINK-33736
1 63450U 25069T   25347.90103052  .00024508  00000-0  83673-3 0  9990
2 63450  53.1575 180.7027 0001359  98.9835 261.1320 15.30204752 40223
Epoch: 2025-12-13T21:37Z
TLE epoch observation values (Epoch: 2025-12-13T21:37:29.036Z)
Latitude
-0.00001°
Longitude
133.51005°
Altitude
476.244 km
Speed
7.629 km/s
True Right ascension
12h 02m 48s
True Declination
0° 00' 00"
Sunlit
Object was in daylight at epoch
Visualization orbit readout
Latitude
Unknown
Longitude
Unknown
Altitude
Unknown
Speed
Unknown
Apparent Right ascension
Unknown
Apparent Declination
Unknown
Sunlit
N/A
Visualization observer readout
Local Sidereal Time
15:09:08
Azimuth
Unknown
Elevation
Unknown
Doppler factor
Unknown
Orbital elements
Apogee altitude
476.389 km
Perigee altitude
474.526 km
Semi-major axis
6,853.595 km
Eccentricity
0.00014
Inclination
53.1575°
RAAN
180.7027°
Arg. of periapsis
98.9835°
True anomaly
261.11661°
Mean anomaly
261.132°
Eccentric anomaly
261.12431°
Mean motion
3.8253 °/min
Orbital period
94.11 mins
BSTAR
0.00083673
Loading maneuver chart data...
Computing Atmospheric mass density...
Loading historical data...
Loading historical data...
Loading historical data...
Loading historical data...
Loading historical data...
Loading historical data...
Loading historical data...

Documentation

Showing up to 5 results
|